Location: Shenandoah County Park
(38.9356°N, 78.4524°W)
Time: 14:10:44
(UTC-04:00)

CAS-4B - Pass Details

Date: 29 April 2024
Orbit: 476 x 492 km, 43.0° (Epoch: 20 May)

Event Time Altitude Azimuth Distance (km) Brightness Sun altitude
Exits shadow 04:19:24 78° 266° (W) 497 ? -20.7°
Maximum altitude 04:19:37 85° 203° (SSW) 489 ? -20.7°
Drops below altitude 10° 04:23:25 10° 114° (ESE) 1,662 ? -20.1°
Sets 04:25:36 0° 114° (ESE) 2,545 ? -19.8°
